Probability
0 0 0 0 0 0 0 0 0 0 0 0 0 0 1 8 29 60 87 99 100 94 79 67 66 72 79 81 75 60 37 18 14 18 16 10 6 4 3 4 11 24 44 58
0 0 0 0 0 0 0 0 0 0 0 0 0 0 0 5 22 52 84 99 98 86 64 47 43 48 53 53 49 42 31 22 19 20 16 9 4 3 2 4 10 19 34 46
0 0 0 0 0 0 0 0 0 0 0 0 0 0 0 4 19 50 81 94 86 64 38 22 19 21 22 22 21 23 26 29 31 30 23 12 3 1 2 4 7 11 18 24
0 0 0 0 0 0 0 0 0 0 0 0 0 0 0 3 17 42 63 68 56 35 17 9 9 9 8 8 9 13 21 31 37 37 30 14 3 1 3 4 5 5 6 9
0 0 0 0 0 0 0 0 0 0 0 0 0 0 0 2 9 19 28 29 22 13 7 5 6 7 6 5 4 6 11 20 28 32 27 13 3 1 3 4 3 2 2 2
0 0 0 0 0 0 0 0 0 0 0 0 0 0 0 1 2 3 4 5 4 3 3 3 4 5 4 2 1 1 4 9 16 20 17 9 3 1 1 1 1 1 0 0
0 0 0 0 0 0 0 0 0 0 0 0 0 0 0 0 0 0 0 0 0 0 1 1 1 1 1 0 0 1 4 7 9 9 7 4 2 0 0 0 0 0 0 0
0 0 0 0 0 0 0 0 0 0 0 0 0 0 0 0 0 0 0 0 0 0 0 0 0 0 0 0 0 2 4 5 4 4 3 2 1 0 0 0 0 0 0 0
0 0 0 0 0 0 0 0 0 0 0 0 0 0 0 0 0 0 0 0 0 0 0 0 0 0 0 0 0 1 2 2 1 1 2 1 0 0 0 0 0 0 0 0
0 0 0 0 0 0 0 0 0 0 0 0 0 0 0 0 0 0 0 0 0 0 0 0 0 0 0 0 0 1 1 0 0 0 0 0 0 0 0 0 0 0 0 0
0 0 0 0 0 0 0 0 0 0 0 0 0 0 0 0 0 0 0 0 0 0 0 0 0 0 0 0 0 1 1 0 0 0 0 0 0 0 0 0 0 0 0 0
0 0 0 0 0 0 0 0 0 0 0 0 0 0 0 0 0 0 0 0 0 0 0 0 0 0 0 0 0 1 1 0 0 0 0 0 0 0 0 0 0 0 0 0
0 0 0 0 0 0 0 0 0 0 0 0 0 0 0 0 0 0 0 0 0 0 0 0 0 0 0 0 0 0 0 0 0 0 0 0 0 0 0 0 0 0 0 0
0 0 0 0 0 0 0 0 0 0 0 0 0 0 0 0 0 0 0 0 0 0 0 0 0 0 0 0 0 0 0 0 0 0 0 0 0 0 0 0 0 0 0 0
0 0 0 0 0 0 0 0 0 0 0 0 0 0 0 0 0 0 0 0 0 0 0 0 0 0 0 0 0 0 0 0 0 0 0 0 0 0 0 0 0 0 0 0
0 0 0 0 0 0 0 0 0 0 0 0 0 0 0 0 0 0 0 0 0 0 0 0 0 0 0 0 0 0 0 0 0 0 0 0 0 0 0 0 0 0 0 0
0 0 0 0 0 0 0 0 0 0 0 0 0 0 0 0 0 0 0 0 0 0 0 0 0 0 0 0 0 0 0 0 0 0 0 0 0 0 0 0 0 0 0 0
0 0 0 0 0 0 0 0 0 0 0 0 0 0 0 0 0 0 0 0 0 0 0 0 0 0 0 0 0 0 0 0 0 0 0 0 0 0 0 0 0 0 0 0
0 0 0 0 0 0 0 0 0 0 0 0 0 0 0 0 0 0 0 0 0 0 0 0 0 0 0 0 0 0 0 0 0 0 0 0 0 0 0 0 0 0 0 0
0 0 0 0 0 0 0 0 0 0 0 0 0 0 0 0 0 0 0 0 0 0 0 0 0 0 0 0 0 0 0 0 0 0 0 0 0 0 0 0 0 0 0 0
0 0 0 0 0 0 0 0 0 0 0 0 0 0 0 0 0 0 0 0 0 0 0 0 0 0 0 0 0 0 0 0 0 0 0 0 0 0 0 0 0 0 0 0
0 0 0 0 0 0 0 0 0 0 0 0 0 0 0 0 0 0 0 0 0 0 0 0 0 0 0 0 0 0 0 0 0 0 0 0 0 0 0 0 0 0 0 0
0 0 0 0 0 0 0 0 0 0 0 0 0 0 0 0 0 0 0 0 0 0 0 0 0 0 0 0 0 0 0 0 0 0 0 0 0 0 0 0 0 0 0 0
0 0 0 0 0 0 0 0 0 0 0 0 0 0 0 0 0 0 0 0 0 0 0 0 0 0 0 0 0 0 0 0 0 0 0 0 0 0 0 0 0 0 0 0
0 0 0 0 0 0 0 0 0 0 0 0 0 0 0 0 0 0 0 0 0 0 0 0 0 0 0 0 0 0 0 0 0 0 0 0 0 0 0 0 0 0 0 0
0 0 0 0 0 0 0 0 0 0 0 0 0 0 0 0 0 0 0 0 0 0 0 0 0 0 0 0 0 0 0 0 0 0 0 0 0 0 0 0 0 0 0 0
Wind_Speed
2 1 4 7 8 9 6 3 4 5 8 8 5 2 2 3 5 9 9 9 9 7 5 5 4 5 4 4 3 3 3 3 2 1 1 2 3 3 4 4 6 7 7 8
3 5 12 9 4 2 4 3 3 4 8 7 6 6 6 4 2 7 11 10 9 6 4 4 3 3 3 2 3 3 3 3 3 3 3 3 3 3 4 4 5 7 7 7
7 8 4 1 4 6 6 2 2 2 3 5 4 6 7 7 5 7 9 9 9 9 8 6 5 4 4 4 6 6 7 6 6 6 3 2 2 3 3 5 5 6 7 7
2 3 2 2 4 4 3 2 5 6 6 3 2 3 7 3 6 6 7 7 8 8 7 7 7 7 7 8 7 8 7 6 6 5 3 4 3 4 5 5 5 7 8 8
4 3 2 2 3 3 1 3 5 5 4 5 4 0 7 1 3 4 5 7 7 8 9 9 10 10 10 9 7 6 5 4 3 3 3 2 3 4 4 5 7 8 8 8
3 2 1 2 2 2 2 7 9 7 5 2 5 2 7 4 6 5 4 6 8 8 9 10 10 8 7 5 4 4 4 2 1 2 1 1 2 4 6 7 8 8 7 7
5 4 3 1 2 5 6 7 6 7 6 5 4 1 6 7 5 7 8 9 9 9 9 8 8 7 6 5 4 3 4 3 2 2 2 1 2 3 5 7 8 9 8 7
1 5 3 2 3 3 1 7 6 2 3 6 4 1 6 6 6 8 9 9 9 9 7 7 7 6 5 6 5 5 5 4 3 2 1 0 1 2 3 6 7 8 7 8
1 4 6 7 3 6 2 2 8 7 1 2 4 1 4 5 5 7 8 8 9 8 6 5 5 6 7 7 6 7 6 5 4 4 3 1 1 2 4 6 6 6 6 6
3 2 5 6 4 2 3 5 5 4 1 3 6 4 4 6 6 6 6 6 6 5 4 5 6 7 6 6 6 6 7 6 5 5 4 2 1 1 3 4 6 6 6 5
4 2 6 6 2 3 2 1 3 4 5 5 4 8 8 9 7 6 5 4 2 1 1 3 5 6 6 6 6 7 6 6 5 5 4 3 2 1 2 3 5 5 4 5
4 5 3 8 8 5 2 2 5 3 5 5 4 10 8 2 1 4 6 6 5 5 5 4 4 5 6 7 7 7 7 6 6 6 5 5 4 2 2 3 4 4 4 5
5 6 4 11 11 9 5 3 1 3 3 3 4 7 8 10 10 9 8 8 8 10 11 10 7 4 5 7 7 7 7 7 7 6 6 5 5 4 3 3 3 3 4 5
7 5 6 5 7 6 8 12 11 5 4 6 7 1 7 8 8 9 10 9 9 11 12 13 13 10 7 6 7 7 8 7 7 7 7 7 7 6 5 4 3 3 3 4
6 4 5 7 8 7 9 12 13 11 9 7 3 6 4 5 6 8 10 11 13 13 15 14 13 13 11 10 9 8 8 8 7 7 7 8 7 7 6 5 4 3 3 3
3 4 2 4 6 8 9 9 7 8 8 7 9 6 6 6 7 10 12 12 12 12 13 13 13 14 13 14 14 12 10 9 7 8 8 7 7 7 6 6 5 3 2 2
2 4 2 4 6 5 4 5 6 8 10 6 6 6 10 11 10 8 10 12 13 13 14 14 13 13 12 13 14 15 13 9 8 8 8 8 8 7 7 6 5 4 3 2
6 5 4 2 3 2 1 5 11 13 13 12 9 10 13 14 11 3 9 12 13 15 15 14 12 12 11 11 12 15 15 10 8 8 8 8 9 8 7 7 7 5 4 4
7 8 4 3 3 5 2 6 5 2 7 11 10 11 12 13 12 4 7 8 9 10 10 10 9 9 10 11 12 12 15 13 9 7 8 9 10 9 8 8 7 6 4 4
6 5 4 3 3 5 3 11 15 2 5 6 7 9 11 12 10 9 12 15 15 13 10 10 9 9 9 10 10 10 11 12 12 10 8 9 10 11 11 10 8 6 5 5
6 5 2 3 4 0 6 13 11 4 5 7 8 10 10 7 9 12 14 16 15 14 13 12 11 9 8 9 8 10 9 9 11 13 10 8 9 11 11 9 7 7 6 6
3 4 3 2 3 2 8 8 5 3 7 9 11 11 12 13 15 16 16 15 15 14 13 12 10 10 8 7 6 8 10 9 10 11 10 8 9 10 10 10 9 8 9 8
5 2 1 3 1 2 1 3 6 7 8 10 11 14 14 16 18 18 17 16 16 15 14 11 11 11 10 8 6 7 9 10 9 10 10 9 9 9 9 11 12 9 9 8
6 5 5 4 3 3 3 4 6 9 12 14 15 16 16 18 20 19 17 16 15 15 14 12 11 11 11 9 8 8 8 8 9 9 9 9 8 9 9 9 10 10 10 9
5 6 5 3 3 5 6 9 12 13 13 15 16 16 16 17 19 19 16 15 15 14 13 11 10 11 11 10 9 10 9 7 8 9 8 8 8 9 10 10 11 13 12 13
3 3 2 2 5 6 10 13 15 15 14 16 15 14 13 14 16 17 15 13 13 13 13 12 11 11 11 9 9 9 9 8 7 7 7 6 7 7 8 9 9 13 11 16
Wind_Direction
283 106 248 242 213 208 236 280 322 333 354 42 51 83 173 183 158 156 152 142 132 130 137 127 125 124 121 126 138 161 175 182 168 171 201 237 257 264 271 267 268 274 274 270
351 263 241 240 261 308 319 344 357 353 4 28 11 351 347 352 268 178 159 146 138 136 145 155 155 143 142 165 184 196 205 208 196 191 199 208 225 251 259 271 282 279 278 276
222 245 234 273 351 357 341 31 41 11 13 27 35 343 337 337 36 102 132 141 150 163 175 185 185 189 182 192 198 198 204 205 206 205 199 226 269 288 290 290 286 281 280 278
259 310 31 27 335 342 322 3 33 13 22 319 62 302 300 338 61 98 132 153 172 182 184 188 191 198 202 204 196 190 191 196 206 201 198 221 243 262 267 273 278 284 283 278
332 347 20 358 321 353 253 37 21 346 335 330 337 60 281 10 138 168 162 173 187 188 188 194 200 205 209 203 192 189 185 196 203 188 194 226 261 270 284 291 290 290 287 278
290 317 343 302 325 13 56 29 3 18 52 344 274 195 280 250 206 186 194 201 205 200 201 206 212 212 213 202 185 177 170 184 171 130 108 84 308 307 311 308 302 297 291 285
330 324 314 324 344 5 62 66 20 358 8 273 269 137 269 271 193 181 198 213 219 219 215 218 222 219 213 197 190 179 172 177 149 113 85 52 344 321 307 304 302 299 295 287
2 310 305 304 209 184 170 129 147 203 250 284 328 176 255 262 190 193 203 212 223 230 229 229 224 206 194 190 188 181 180 180 170 150 139 77 348 318 303 301 300 296 292 286
101 286 314 327 288 151 162 167 167 145 259 301 302 245 270 278 243 215 214 218 225 227 221 209 190 181 182 187 190 188 185 188 188 179 171 168 302 310 310 310 306 302 302 303
117 276 299 323 353 349 161 158 89 97 178 277 294 294 240 240 242 227 212 206 209 201 181 173 180 184 188 190 193 190 191 196 196 189 183 171 190 287 307 315 319 316 319 334
94 89 317 346 344 284 313 239 134 142 168 174 261 270 238 220 215 210 210 190 166 140 182 226 217 204 198 193 193 198 205 205 201 199 190 176 190 231 296 316 322 324 335 350
121 106 308 284 276 264 196 187 147 162 246 199 207 270 295 288 36 67 63 58 42 22 353 316 264 222 209 205 205 207 210 209 209 202 192 190 192 202 253 287 304 320 337 345
118 92 12 342 344 359 7 342 301 187 168 202 214 269 1 48 52 51 54 44 33 21 13 2 343 294 246 226 217 216 215 215 211 196 192 193 197 202 225 251 275 304 326 337
105 116 155 207 249 284 305 307 306 295 254 247 229 204 13 23 32 31 32 30 28 25 21 15 6 346 318 282 245 227 223 215 202 191 191 197 203 205 212 228 251 280 307 321
98 155 207 224 246 264 282 290 291 283 257 226 140 103 39 8 25 36 30 26 25 21 17 12 5 357 346 330 300 263 238 221 200 190 194 204 205 202 201 209 226 255 287 304
115 171 214 284 276 287 293 313 341 19 22 80 95 65 358 350 34 39 27 25 21 12 6 1 359 357 352 342 326 297 262 233 203 194 199 202 197 196 196 196 199 210 248 287
210 163 159 272 301 346 357 2 80 69 27 42 58 20 356 358 16 38 23 18 10 360 355 352 348 345 342 339 338 324 289 253 212 201 198 192 191 195 196 186 181 189 205 211
181 152 153 208 4 304 219 55 99 96 54 36 38 18 8 349 329 47 34 9 349 341 339 337 332 330 331 332 335 338 328 291 240 208 197 192 188 193 190 180 180 186 186 190
168 147 142 148 206 256 119 25 353 149 70 27 22 7 355 340 323 293 357 336 313 308 308 306 307 309 314 323 329 334 343 332 294 245 209 196 189 188 185 185 184 180 176 185
47 82 125 164 215 247 335 336 326 70 90 21 0 336 329 339 334 307 318 318 312 308 305 304 305 310 314 317 321 327 335 342 328 300 255 213 191 186 188 188 180 170 170 180
357 1 354 255 250 107 342 327 341 12 314 305 297 295 298 289 264 277 291 292 288 288 290 292 293 295 295 304 317 320 321 325 326 318 293 241 204 193 188 182 173 166 166 167
46 12 347 347 307 328 355 21 51 248 255 265 278 282 279 272 271 274 277 278 279 280 280 281 280 278 277 281 300 309 309 307 316 323 312 271 224 204 191 178 177 172 168 170
49 14 55 58 85 156 109 156 212 230 256 269 272 274 274 276 277 278 278 278 279 276 275 274 272 275 276 272 271 286 295 303 310 317 320 299 247 215 193 183 181 175 174 176
14 15 97 88 122 212 233 249 250 248 255 267 272 276 278 278 280 282 282 281 278 274 272 270 268 270 273 268 261 258 268 283 294 301 308 308 275 228 205 191 184 182 182 182
6 11 56 64 330 311 281 283 281 281 282 287 289 287 285 286 289 289 289 286 283 280 276 270 265 266 268 267 263 262 261 260 271 284 296 303 284 241 211 197 191 188 191 188
13 48 66 266 259 261 275 279 287 294 294 294 295 295 295 293 292 292 290 287 286 286 281 275 269 264 263 258 257 263 263 252 250 270 287 296 292 261 221 199 194 201 190 188